Location: Allaines
(49.9632°N, 2.9458°E)
Time: 22:13:50
(UTC+00:00)

X-37B - Pass Details

Date: 24 June 2021
Orbit: 383 x 392 km, 45.0° (Epoch: 01 July)

Event Time Altitude Azimuth Distance (km) Brightness Sun altitude
Rises 22:43:16 0° 254° (WSW) 2,255 4.5 -15.1°
Reaches altitude 10° 22:45:26 10° 245° (WSW) 1,402 3.3 -15.2°
Enters shadow 22:47:21 26° 215° (SW) 786 1.8 -15.3°
